CW7520 Weather Reports


Display with metric or nautical units.
time (UTC)temp
F
wind
direction
speed
MPH
gust
MPH
rain 1hr
in
rain 24hr
in
rain mn
in
humidity
%
barometer
mb
20260504032708 66 0 0.0 0.0 0.00 0.00 0.00 56 1009.7
20260504031803 66 0 0.0 0.0 0.00 0.00 0.00 54 1009.9
20260504030904 68 0 0.0 0.0 0.00 0.00 0.00 53 1009.9
20260504030004 67 0 0.0 0.0 0.00 0.00 0.00 55 1009.9
20260504025408 67 0 0.0 0.0 0.00 0.00 0.00 55 1010.0
20260504024503 67 0 0.0 0.0 0.00 0.00 0.00 56 1010.1
20260504023604 66 0 0.0 0.0 0.00 0.00 0.00 57 1010.2
20260504022704 66 0 0.0 0.0 0.00 0.00 0.00 57 1010.5
20260504021804 66 0 0.0 0.0 0.00 0.00 0.00 57 1010.6
20260504020904 65 0 0.0 0.0 0.00 0.00 0.00 58 1010.5
20260504020008 65 0 0.0 0.0 0.00 0.00 0.00 61 1010.8
20260504015403 65 0 0.0 0.0 0.00 0.00 0.00 62 1010.9
20260504014503 64 0 0.0 0.0 0.00 0.01 0.00 63 1011.0
20260504013603 64 0 0.0 0.0 0.00 0.03 0.00 62 1011.0
20260504012703 64 0 0.0 0.0 0.00 0.04 0.00 63 1011.1
20260504011810 64 0 0.0 0.0 0.00 0.05 0.00 64 1011.2
20260504010904 64 0 0.0 0.0 0.00 0.08 0.00 64 1011.0
20260504010009 64 0 0.0 0.0 0.00 0.10 0.00 63 1011.1
20260504005404 64 0 0.0 0.0 0.00 0.11 0.00 63 1011.0
20260504004509 64 0 0.0 0.0 0.00 0.13 0.00 67 1011.1
20260504003604 63 0 0.0 0.0 0.00 0.14 0.00 65 1011.1
20260504002708 63 0 0.0 0.0 0.00 0.15 0.00 66 1011.2
20260504001808 63 0 0.0 0.0 0.00 0.17 0.00 66 1011.1
20260504001124 63 0 0.0 0.0 0.00 0.20 0.00 67 1011.1
20260504000003 62 0 0.0 0.0 0.00 0.25 0.00 68 1011.1
20260503235404 62 0 0.0 0.0 0.00 0.27 0.00 68 1011.1
20260503234508 62 0 0.0 0.0 0.00 0.27 0.00 68 1011.2
20260503233603 62 0 0.0 0.0 0.00 0.28 0.00 68 1011.4
20260503232703 61 0 0.0 0.0 0.00 0.30 0.00 68 1011.4
20260503232014 61 0 0.0 0.0 0.00 0.30 0.00 69 1011.4
20260503230903 60 0 0.0 0.0 0.00 0.30 0.00 69 1011.5
20260503230008 60 0 0.0 0.0 0.00 0.30 0.00 69 1011.6
20260503225404 59 0 0.0 0.0 0.00 0.30 0.00 70 1011.6
20260503224513 59 0 0.0 0.0 0.00 0.30 0.00 70 1011.4
20260503223603 58 0 0.0 0.0 0.00 0.30 0.00 71 1011.5
20260503222918 58 0 0.0 0.0 0.00 0.30 0.00 71 1011.5
20260503221803 58 0 0.0 0.0 0.00 0.30 0.00 72 1011.4
20260503220904 57 0 0.0 0.0 0.00 0.30 0.00 73 1011.3
20260503220214 57 0 0.0 0.0 0.00 0.30 0.00 74 1011.2
20260503215408 57 0 0.0 0.0 0.00 0.30 0.00 75 1011.3
20260503214503 57 0 0.0 0.0 0.00 0.30 0.00 75 1011.4
20260503213603 56 0 0.0 0.0 0.00 0.30 0.00 75 1011.3
20260503212703 56 0 0.0 0.0 0.00 0.30 0.00 74 1011.3
20260503211803 56 0 0.0 0.0 0.00 0.30 0.00 74 1011.3
20260503210904 56 0 0.0 0.0 0.00 0.30 0.00 75 1011.2
20260503210004 56 0 0.0 0.0 0.00 0.30 0.00 76 1011.2
20260503205403 56 0 0.0 0.0 0.00 0.30 0.00 77 1011.1
20260503204504 55 0 0.0 0.0 0.00 0.30 0.00 77 1011.0
20260503203605 55 0 0.0 0.0 0.00 0.30 0.00 78 1011.1
20260503202705 55 0 0.0 0.0 0.00 0.30 0.00 78 1011.0
20260503202015 55 0 0.0 0.0 0.00 0.30 0.00 78 1011.0
20260503200905 55 0 0.0 0.0 0.00 0.30 0.00 79 1010.9
20260503200004 55 0 0.0 0.0 0.00 0.30 0.00 79 1010.9
20260503195403 55 0 0.0 0.0 0.00 0.30 0.00 79 1010.9
20260503194504 55 0 0.0 0.0 0.00 0.30 0.00 80 1011.0
20260503193605 55 0 0.0 0.0 0.00 0.30 0.00 81 1011.1
20260503192705 55 0 0.0 0.0 0.00 0.30 0.00 81 1011.1
20260503191805 55 0 0.0 0.0 0.00 0.30 0.00 81 1011.2
20260503190905 55 0 0.0 0.0 0.00 0.30 0.00 82 1011.3
20260503190008 55 0 0.0 0.0 0.00 0.30 0.00 82 1011.4
20260503185404 55 0 0.0 0.0 0.00 0.30 0.00 82 1011.4
20260503184505 55 0 0.0 0.0 0.00 0.30 0.00 82 1011.5
20260503183813 55 0 0.0 0.0 0.00 0.30 0.00 82 1011.5
20260503182704 55 0 0.0 0.0 0.00 0.30 0.00 82 1011.6
20260503181803 55 0 0.0 0.0 0.00 0.30 0.00 83 1011.7
20260503180904 55 0 0.0 0.0 0.00 0.30 0.00 83 1011.6
20260503180004 54 0 0.0 0.0 0.00 0.30 0.00 83 1011.7
20260503175403 54 0 0.0 0.0 0.00 0.30 0.00 83 1011.8
20260503174716 54 0 0.0 0.0 0.00 0.30 0.00 83 1011.8
20260503173605 54 0 0.0 0.0 0.00 0.30 0.00 82 1011.9
20260503172705 55 0 0.0 0.0 0.00 0.30 0.00 82 1012.0
20260503171803 55 0 0.0 0.0 0.00 0.30 0.00 82 1012.0
20260503170903 55 0 0.0 0.0 0.00 0.30 0.00 82 1012.0
20260503150904 58 0 0.0 0.0 0.00 0.30 0.00 79 1012.2
20260503150216 58 0 0.0 0.0 0.00 0.30 0.00 79 1012.1
20260503130904 60 0 0.0 0.0 0.00 0.30 0.30 79 1012.7
20260503120215 58 0 0.0 0.0 0.00 0.30 0.30 79 1012.6
20260503080904 62 0 0.0 0.0 0.00 0.30 0.30 64 1011.1
20260503072703 64 0 0.0 0.0 0.00 0.30 0.30 59 1011.0
20260503071809 65 0 0.0 0.0 0.00 0.30 0.30 58 1010.9
20260503070913 65 0 0.0 0.0 0.00 0.30 0.30 57 1010.8
20260503070219 65 0 0.0 0.0 0.00 0.30 0.30 58 1010.8
20260503054713 64 0 0.0 0.0 0.00 0.30 0.30 75 1010.3
20260503053815 64 0 0.0 0.0 0.00 0.30 0.30 76 1010.4
20260503052708 64 0 0.0 0.0 0.00 0.30 0.30 76 1010.4
20260503051808 64 0 0.0 0.0 0.00 0.30 0.30 76 1010.3
20260503050909 65 0 0.0 0.0 0.00 0.30 0.30 76 1010.3
20260503050008 65 0 0.0 0.0 0.00 0.30 0.30 76 1010.4
20260503045614 65 0 0.0 0.0 0.00 0.30 0.30 76 1010.4
20260503044513 66 0 0.0 0.0 0.00 0.30 0.30 75 1010.2
20260503043603 67 0 0.0 0.0 0.00 0.30 0.30 75 1010.1
20260503042708 68 0 0.0 0.0 0.00 0.30 0.30 79 1010.0
20260503041803 68 0 0.0 0.0 0.00 0.30 0.30 78 1009.9
20260503040908 69 0 0.0 0.0 0.00 0.30 0.30 77 1009.7
20260503040213 69 0 0.0 0.0 0.00 0.30 0.30 76 1009.6
20260503035408 69 0 0.0 0.0 0.00 0.30 0.30 77 1009.7
20260503034503 68 0 0.0 0.0 0.00 0.30 0.30 78 1009.6
20260503033604 68 0 0.0 0.0 0.00 0.30 0.30 78 1009.7